Theta_e
353 353 353 353 353 353 353 353 353 353 354 355 355 356 356 356 356 357 358 359 357 354 350 347 346 345 343 342 343 343 341 339 339 340 340 339 338 335 333 333 336 337
353 354 354 354 354 354 353 352 353 353 354 355 355 355 356 356 357 357 358 358 356 353 350 347 347 346 344 342 342 342 340 339 340 340 340 339 337 335 333 332 334 336
354 354 354 354 354 354 353 353 353 354 355 355 355 355 355 356 357 358 358 356 354 352 350 348 348 348 346 343 342 342 340 339 340 340 340 339 336 335 334 333 334 336
355 355 355 354 354 354 353 353 354 354 355 355 355 355 355 356 357 357 357 355 353 351 349 349 349 349 347 344 343 343 341 340 340 340 340 338 336 336 335 334 334 335
355 355 355 355 354 354 354 354 354 354 355 355 355 355 355 356 357 356 356 354 353 351 350 349 349 349 348 345 344 344 343 341 340 340 340 338 337 337 337 336 334 334
355 355 355 355 355 354 354 354 354 355 355 355 355 355 355 356 356 355 354 353 352 351 350 350 350 350 349 346 345 345 344 342 340 339 340 339 337 337 337 337 335 333
356 356 355 355 355 355 355 355 355 355 355 355 355 355 355 355 355 355 354 353 352 352 351 350 350 350 348 346 345 345 344 342 340 339 339 339 338 338 338 338 337 335
355 356 356 356 356 356 356 355 355 355 355 355 355 355 355 355 355 354 353 353 352 352 351 350 349 349 348 346 346 346 344 342 340 339 338 338 338 338 338 338 337 336
356 356 356 356 356 356 357 356 356 355 355 355 355 355 355 355 355 354 353 352 352 351 351 350 350 349 348 345 345 345 344 343 341 339 338 338 338 338 338 338 337 336
356 356 356 357 357 356 357 357 356 356 355 355 355 355 355 354 354 354 353 352 351 351 350 350 349 349 348 346 344 343 343 343 342 341 339 338 337 338 338 338 338 336
357 357 356 356 357 357 357 357 356 356 356 356 356 355 355 354 354 353 352 352 351 351 350 350 349 349 348 347 345 344 344 343 343 342 340 338 338 338 338 338 338 337
357 357 357 357 357 356 357 357 356 356 356 356 356 355 355 354 354 353 352 352 351 351 350 350 349 349 348 348 347 346 345 344 343 342 341 340 338 338 338 338 338 337
358 358 358 357 357 357 357 357 356 356 356 356 356 356 355 354 354 354 353 352 351 351 351 350 350 350 349 349 348 346 346 345 343 342 341 340 339 339 338 338 337 337
358 358 358 358 358 358 357 357 357 357 357 356 356 356 355 355 355 354 353 353 352 351 351 351 350 350 349 348 347 346 345 344 343 342 341 341 340 339 339 338 338 337
358 358 358 358 358 358 358 358 357 357 357 357 356 356 356 355 355 355 354 353 353 352 351 351 350 350 349 348 347 346 345 344 343 342 342 341 341 340 339 339 338 338
358 358 358 359 358 358 358 358 358 358 357 357 357 356 356 355 355 355 355 354 353 353 352 351 351 350 350 349 348 347 346 344 343 343 342 342 341 341 340 339 338 338
359 358 359 359 359 358 358 358 358 358 357 357 357 356 356 356 356 355 355 354 354 354 353 352 352 351 350 350 349 348 347 345 344 344 343 343 342 341 340 339 339 339
358 359 359 359 358 359 358 359 359 358 358 357 357 357 357 356 356 356 355 355 354 354 353 353 352 352 351 350 349 348 347 346 345 345 344 343 342 341 340 339 339 339
359 359 359 359 359 359 358 359 359 358 358 358 357 357 357 356 356 356 355 355 355 354 354 354 353 352 351 351 350 349 348 348 346 346 345 344 343 341 340 339 339 339
359 359 359 359 359 359 359 359 359 359 358 358 358 357 356 357 356 356 356 355 355 355 354 354 354 353 352 352 352 351 350 349 348 347 346 345 344 342 341 340 340 339
359 359 359 359 359 359 359 359 359 359 359 358 357 357 357 357 356 356 356 355 355 355 355 354 354 353 353 353 352 352 352 351 349 348 346 344 343 343 342 342 340 339
359 360 360 360 360 359 360 359 359 359 358 358 358 357 357 356 356 356 355 355 355 355 354 354 354 354 354 354 353 353 353 351 350 347 345 344 344 343 343 342 340 339
360 360 360 360 360 360 359 359 359 359 358 358 358 357 357 356 355 356 355 355 355 355 354 354 354 354 354 353 353 354 353 351 350 347 344 344 344 343 343 342 341 339
360 360 360 360 359 360 359 359 359 359 359 358 358 357 357 356 356 355 355 356 355 355 355 354 354 354 354 353 354 353 352 352 350 347 344 344 344 343 342 342 340 339
359 360 360 360 360 359 359 359 359 359 359 359 358 357 357 356 356 355 355 355 355 355 355 355 355 355 354 354 354 353 353 352 350 346 343 343 344 343 341 341 339 338
359 360 360 360 360 360 359 359 359 359 359 359 358 357 357 356 356 355 355 355 355 355 355 355 355 355 355 355 355 354 354 353 349 346 343 343 343 342 341 340 339 338
Wind_Speed
43 42 40 39 37 36 34 34 34 35 37 37 36 36 36 35 33 32 31 29 29 29 29 27 26 25 25 25 25 25 24 24 24 24 24 23 21 21 21 21 20 19
43 42 40 38 37 36 35 35 35 36 38 38 38 37 36 34 33 32 32 31 30 30 29 28 27 26 26 27 27 26 26 25 25 26 26 24 22 21 21 21 22 21
44 42 41 39 38 37 36 36 35 37 38 38 38 37 35 34 34 33 33 32 32 31 30 29 28 28 28 28 28 27 27 27 26 27 26 25 23 22 21 21 23 23
44 43 42 41 39 38 37 36 36 37 37 37 37 37 36 35 34 34 34 34 33 33 32 31 30 30 30 30 29 29 28 28 27 28 27 26 24 23 22 21 22 23
45 44 43 42 40 38 37 38 38 38 38 37 37 37 36 35 35 35 35 35 35 34 33 33 32 32 31 32 32 31 30 30 29 29 29 28 26 25 23 22 23 24
43 43 43 42 40 39 38 39 40 40 38 37 37 37 37 37 36 36 36 37 37 36 35 34 34 33 33 34 34 33 33 31 29 29 30 30 28 26 25 24 24 24
42 42 42 41 40 39 40 41 41 40 39 38 37 37 37 37 37 37 37 37 37 37 37 36 35 35 35 35 36 35 34 32 30 29 31 31 31 29 27 26 26 25
42 41 41 40 40 39 40 41 41 40 40 38 37 38 37 38 38 38 38 38 38 38 38 37 37 36 35 35 36 36 35 33 32 31 32 33 33 32 30 28 27 26
41 41 41 40 41 40 41 42 42 41 39 38 38 38 37 38 38 38 38 38 38 38 38 38 38 37 36 36 37 37 36 36 35 34 33 33 34 34 32 30 28 27
41 41 40 40 41 41 42 43 42 40 39 39 39 37 37 37 37 38 38 38 38 38 38 38 38 37 36 37 38 38 38 38 37 36 35 34 35 34 33 32 31 30
41 41 40 41 42 42 43 43 42 40 39 39 38 37 36 36 36 37 37 38 39 39 39 38 38 37 37 37 38 39 39 39 38 37 36 35 35 34 33 33 32 32
41 41 42 42 42 42 42 43 42 40 39 38 38 37 36 36 36 37 38 38 39 39 39 38 37 37 38 39 39 40 40 39 38 37 37 36 35 34 34 33 33 32
42 43 42 42 43 42 42 41 40 40 39 38 38 37 36 36 36 37 38 38 38 38 38 37 36 37 38 39 40 40 40 40 38 37 37 37 36 36 35 34 34 32
44 43 43 42 42 41 40 39 39 39 39 38 37 37 37 37 37 37 36 36 36 36 36 36 36 38 39 40 40 40 40 39 38 37 37 37 36 36 36 36 34 33
43 42 41 41 39 38 39 39 38 38 37 36 36 37 37 36 36 35 34 34 34 34 35 35 37 39 40 40 40 39 39 38 37 36 37 37 36 36 36 35 34 33
41 41 40 39 38 38 38 38 37 36 35 36 36 36 35 34 34 33 33 34 34 34 34 35 38 40 41 41 41 40 38 37 36 36 37 37 37 36 35 33 32 32
41 40 39 39 39 38 37 37 36 35 34 35 35 34 34 33 33 33 34 34 35 35 35 37 39 41 41 41 40 40 38 37 36 37 38 38 38 36 34 31 30 30
40 40 39 39 39 38 37 36 35 34 34 34 34 34 33 33 33 34 35 35 35 36 36 38 40 41 40 40 40 39 39 38 37 37 38 38 38 36 33 30 29 29
39 39 39 39 39 39 37 35 34 34 34 35 34 34 34 34 35 35 35 35 36 36 38 40 40 40 39 39 39 39 39 39 38 38 38 38 37 35 33 32 32 30
38 39 39 39 38 37 35 34 34 35 36 35 34 34 34 35 36 36 36 37 37 37 39 39 39 39 38 38 39 39 39 39 40 39 38 37 36 35 35 35 34 32
38 39 39 37 36 35 34 35 36 36 36 36 35 35 37 37 37 37 37 38 38 38 38 38 38 38 38 38 39 39 38 39 40 39 37 34 34 33 34 35 34 32
39 39 37 36 34 34 35 36 37 37 37 37 36 37 37 37 36 37 38 38 38 38 38 37 37 37 38 39 39 38 38 39 39 38 34 32 32 32 32 33 31 30
38 37 36 35 34 35 37 38 38 39 38 38 38 37 37 37 37 37 37 38 38 38 38 37 37 37 38 38 37 37 37 37 38 36 33 31 32 32 31 30 29 29
39 37 35 35 36 37 38 38 39 39 39 39 39 38 38 37 37 36 36 38 38 38 38 37 37 38 38 37 37 36 35 35 36 36 32 31 31 29 28 28 28 28
39 38 36 36 38 40 40 40 40 39 39 39 39 38 36 36 36 36 36 37 37 37 38 37 37 38 37 36 35 33 31 33 34 33 30 29 29 27 25 25 25 26
38 39 40 40 41 42 41 40 40 38 37 38 37 36 35 35 36 36 35 35 35 35 36 36 37 36 35 34 32 29 28 30 32 31 29 28 27 26 25 24 24 25
Wind_Direction
211 211 212 214 215 218 218 218 217 217 220 220 220 221 222 223 223 222 222 222 222 221 219 217 215 215 218 219 218 220 223 223 223 224 224 228 231 230 227 224 222 222
210 212 212 213 214 216 218 219 219 219 221 222 222 222 223 223 223 222 222 221 220 220 219 218 216 216 218 219 219 220 223 225 224 223 224 228 231 229 227 224 223 224
210 211 212 213 213 214 216 218 220 221 222 223 222 222 223 223 223 222 222 221 220 220 220 219 218 218 219 220 220 221 222 224 224 223 226 229 229 228 227 225 223 224
210 211 212 213 213 214 214 215 219 221 222 222 222 222 222 223 223 223 222 221 220 220 220 221 220 220 220 221 222 223 224 225 226 226 228 230 229 229 230 229 226 226
210 211 212 213 213 213 213 214 218 220 221 222 222 222 223 223 222 222 221 220 219 220 221 222 223 221 222 222 222 225 226 228 229 228 229 230 230 231 232 231 229 229
211 211 211 212 212 212 212 215 218 220 221 222 223 223 223 222 222 222 221 220 219 219 220 221 223 223 223 223 223 226 228 229 230 228 229 231 231 232 233 232 231 230
211 211 212 212 212 212 213 216 218 220 221 223 223 223 222 221 222 222 222 221 219 219 219 220 222 223 224 224 223 226 228 230 230 228 229 232 232 233 233 232 233 232
211 211 211 212 212 212 214 216 218 219 221 222 223 223 222 220 221 221 221 221 219 219 219 220 222 224 224 224 223 225 227 229 229 228 230 231 231 232 232 232 233 234
211 212 211 211 211 212 214 216 218 219 219 221 222 223 222 221 221 221 220 220 219 219 220 220 222 223 224 224 223 224 226 227 228 229 230 231 230 231 231 230 232 233
211 211 211 211 212 212 214 216 217 218 218 219 221 221 221 220 221 220 220 219 218 219 220 221 221 222 223 224 224 224 225 227 228 230 231 231 232 233 232 230 230 232
210 211 211 211 212 213 214 216 216 216 217 218 219 219 220 220 219 219 219 218 219 219 220 221 221 222 222 223 224 225 226 227 229 230 231 233 234 235 234 233 232 232
210 211 211 212 213 213 214 216 216 216 216 216 217 218 219 220 219 219 219 219 220 221 221 221 222 222 223 224 225 225 226 227 229 230 232 234 235 236 236 236 235 234
210 212 212 212 213 214 215 215 216 215 215 215 216 217 217 218 219 220 220 221 222 222 222 223 222 223 224 225 225 225 225 226 227 229 231 234 236 237 238 239 238 235
211 212 213 213 214 214 215 216 216 216 215 215 215 215 217 218 220 221 221 222 222 223 223 223 223 224 225 225 225 225 225 226 226 227 230 233 235 237 238 239 238 236
210 211 213 214 214 213 214 216 216 217 216 214 214 215 216 218 220 221 221 221 222 223 223 223 224 226 226 225 225 225 225 226 226 226 229 232 235 237 238 238 237 236
208 210 211 212 213 213 214 215 216 217 216 215 215 215 216 217 218 220 221 221 222 222 222 223 225 227 228 227 227 226 226 225 226 227 230 232 235 237 238 237 236 235
206 208 209 210 212 213 214 214 214 215 215 215 215 215 215 215 216 218 220 221 222 222 223 224 227 229 229 229 229 229 227 226 227 229 230 232 234 236 236 236 235 233
205 206 207 209 210 211 212 213 213 213 214 215 215 214 214 214 215 217 218 220 221 222 223 226 228 230 230 230 230 230 229 228 229 230 232 232 234 234 234 236 237 233
204 204 206 208 209 209 210 210 210 212 213 214 215 214 213 213 214 216 217 218 219 221 224 227 229 230 230 231 232 231 231 231 231 232 234 233 233 233 232 236 238 233
203 204 206 207 208 207 207 207 209 211 213 214 214 213 212 213 213 214 215 217 218 221 224 227 229 230 230 232 233 233 233 233 232 234 234 234 234 234 232 235 236 232
202 205 206 206 205 204 204 206 208 210 211 212 212 212 213 213 213 213 214 216 218 221 223 226 228 229 231 232 233 234 235 234 233 232 232 233 234 235 236 237 235 231
203 204 205 204 202 202 203 205 207 209 210 210 211 212 213 213 213 213 214 215 218 220 222 226 228 230 232 233 234 235 235 233 231 229 229 231 233 235 237 237 233 230
205 204 203 201 200 201 203 205 207 208 209 209 209 210 211 212 212 213 213 215 217 218 221 224 227 230 232 233 234 235 233 230 228 226 225 228 232 234 235 235 234 230
205 205 203 200 199 202 205 206 207 208 208 208 209 209 210 211 211 212 214 215 216 217 219 221 225 229 231 232 234 234 230 227 226 224 222 225 229 232 233 234 234 226
203 203 202 201 202 204 206 206 207 208 208 208 209 209 210 211 211 212 214 215 216 217 219 220 224 228 230 231 232 230 227 226 224 219 218 221 224 227 229 230 230 222
202 202 203 203 204 205 206 207 208 208 207 208 208 209 209 210 211 212 213 214 215 216 218 220 223 227 229 229 228 226 223 222 220 215 213 215 218 221 222 224 224 216